Year,Month,Day,Hour,Minute,Value (Times are PST for temperature in C)
2009,07,01,00,00,11.70
2009,07,01,00,01,11.70
2009,07,01,00,02,11.70
2009,07,01,00,03,11.60
2009,07,01,00,04,11.50
2009,07,01,00,05,11.40
2009,07,01,00,06,11.20
2009,07,01,00,07,11.10
2009,07,01,00,08,11.10
2009,07,01,00,09,11.10
2009,07,01,00,10,11.10
2009,07,01,00,11,11.10
2009,07,01,00,12,11.10
2009,07,01,00,13,11.10
2009,07,01,00,14,11.10
2009,07,01,00,15,11.10
2009,07,01,00,16,11.10
2009,07,01,00,17,11.10
2009,07,01,00,18,11.10
2009,07,01,00,19,11.10
2009,07,01,00,20,11.10
2009,07,01,00,21,11.10
2009,07,01,00,22,11.10
2009,07,01,00,23,11.10
2009,07,01,00,24,11.10
2009,07,01,00,25,11.10
2009,07,01,00,26,11.10
2009,07,01,00,27,11.10
2009,07,01,00,28,11.10
2009,07,01,00,29,11.10
2009,07,01,00,30,11.10
2009,07,01,00,31,11.00
2009,07,01,00,32,10.90
2009,07,01,00,33,10.90
2009,07,01,00,34,10.90
2009,07,01,00,35,10.90
2009,07,01,00,36,10.80
2009,07,01,00,37,10.80
2009,07,01,00,38,10.80
2009,07,01,00,39,10.80
2009,07,01,00,40,10.80
2009,07,01,00,41,10.70
2009,07,01,00,42,10.60
2009,07,01,00,43,10.60
2009,07,01,00,44,10.60
2009,07,01,00,45,10.60
2009,07,01,00,46,10.60
2009,07,01,00,47,10.60
2009,07,01,00,48,10.40
2009,07,01,00,49,10.40
2009,07,01,00,50,10.40
2009,07,01,00,51,10.40
2009,07,01,00,52,10.40
2009,07,01,00,53,10.40
2009,07,01,00,54,10.40
2009,07,01,00,55,10.40
2009,07,01,00,56,10.40
2009,07,01,00,57,10.40
2009,07,01,00,58,10.40
2009,07,01,00,59,10.40
2009,07,01,01,00,10.40
2009,07,01,01,01,10.30
2009,07,01,01,02,10.40
2009,07,01,01,03,10.40
2009,07,01,01,04,10.40
2009,07,01,01,05,10.40
2009,07,01,01,06,10.40
2009,07,01,01,07,10.40
2009,07,01,01,08,10.40
2009,07,01,01,09,10.40
2009,07,01,01,10,10.40
2009,07,01,01,11,10.30
2009,07,01,01,12,10.30
2009,07,01,01,13,10.30
2009,07,01,01,14,10.20
2009,07,01,01,15,10.20
2009,07,01,01,16,10.20
2009,07,01,01,17,10.20
2009,07,01,01,18,10.20
2009,07,01,01,19,10.20
2009,07,01,01,20,10.10
2009,07,01,01,21,10.10
2009,07,01,01,22,10.10
2009,07,01,01,23,10.10
2009,07,01,01,24,10.10
2009,07,01,01,25,10.20
2009,07,01,01,26,10.20
2009,07,01,01,27,10.20
2009,07,01,01,28,10.20
2009,07,01,01,29,10.20
2009,07,01,01,30,10.20
2009,07,01,01,31,10.20
2009,07,01,01,32,10.20
2009,07,01,01,33,10.20
2009,07,01,01,34,10.20
2009,07,01,01,35,10.10
2009,07,01,01,36,10.10
2009,07,01,01,37,10.10
2009,07,01,01,38,10.10
2009,07,01,01,39,10.10
2009,07,01,01,40,10.00
2009,07,01,01,41,9.90
2009,07,01,01,42,9.90
2009,07,01,01,43,9.90
2009,07,01,01,44,9.80
2009,07,01,01,45,9.80
2009,07,01,01,46,9.80
2009,07,01,01,47,9.80
2009,07,01,01,48,9.70
2009,07,01,01,49,9.70
2009,07,01,01,50,9.70
2009,07,01,01,51,9.70
2009,07,01,01,52,9.70
2009,07,01,01,53,9.70
2009,07,01,01,54,9.70
2009,07,01,01,55,9.70
2009,07,01,01,56,9.70
2009,07,01,01,57,9.70
2009,07,01,01,58,9.70
2009,07,01,01,59,9.70
2009,07,01,02,00,9.70
2009,07,01,02,01,9.70
2009,07,01,02,02,9.70
2009,07,01,02,03,9.70
2009,07,01,02,04,9.70
2009,07,01,02,05,9.60
2009,07,01,02,06,9.60
2009,07,01,02,07,9.60
2009,07,01,02,08,9.60
2009,07,01,02,09,9.60
2009,07,01,02,10,9.60
2009,07,01,02,11,9.60
2009,07,01,02,12,9.50
2009,07,01,02,13,9.50
2009,07,01,02,14,9.50
2009,07,01,02,15,9.50
2009,07,01,02,16,9.50
2009,07,01,02,17,9.50
2009,07,01,02,18,9.50
2009,07,01,02,19,9.50
2009,07,01,02,20,9.40
2009,07,01,02,21,9.40
2009,07,01,02,22,9.40
2009,07,01,02,23,9.30
2009,07,01,02,24,9.30
2009,07,01,02,25,9.20
2009,07,01,02,26,9.20
2009,07,01,02,27,9.20
2009,07,01,02,28,9.20
2009,07,01,02,29,9.20
2009,07,01,02,30,9.20
2009,07,01,02,31,9.20
2009,07,01,02,32,9.10
2009,07,01,02,33,9.10
2009,07,01,02,34,9.10
2009,07,01,02,35,9.10
2009,07,01,02,36,9.10
2009,07,01,02,37,9.00
2009,07,01,02,38,9.00
2009,07,01,02,39,9.00
2009,07,01,02,40,9.00
2009,07,01,02,41,9.00
2009,07,01,02,42,9.00
2009,07,01,02,43,9.00
2009,07,01,02,44,9.00
2009,07,01,02,45,9.00
2009,07,01,02,46,9.00
2009,07,01,02,47,9.00
2009,07,01,02,48,9.00
2009,07,01,02,49,9.00
2009,07,01,02,50,9.00
2009,07,01,02,51,8.90
2009,07,01,02,52,8.90
2009,07,01,02,53,8.90
2009,07,01,02,54,8.90
2009,07,01,02,55,8.90
2009,07,01,02,56,8.90
2009,07,01,02,57,8.90
2009,07,01,02,58,8.90
2009,07,01,02,59,8.80
2009,07,01,03,00,8.80
2009,07,01,03,01,8.80
2009,07,01,03,02,8.80
2009,07,01,03,03,8.80
2009,07,01,03,04,8.80
2009,07,01,03,05,8.80
2009,07,01,03,06,8.80
2009,07,01,03,07,8.70
2009,07,01,03,08,8.70
2009,07,01,03,09,8.70
2009,07,01,03,10,8.70
2009,07,01,03,11,8.70
2009,07,01,03,12,8.70
2009,07,01,03,13,8.60
2009,07,01,03,14,8.60
2009,07,01,03,15,8.60
2009,07,01,03,16,8.60
2009,07,01,03,17,8.50
2009,07,01,03,18,8.50
2009,07,01,03,19,8.50
2009,07,01,03,20,8.50
2009,07,01,03,21,8.50
2009,07,01,03,22,8.50
2009,07,01,03,23,8.50
2009,07,01,03,24,8.50
2009,07,01,03,25,8.50
2009,07,01,03,26,8.50
2009,07,01,03,27,8.50
2009,07,01,03,28,8.50
2009,07,01,03,29,8.50
2009,07,01,03,30,8.50
2009,07,01,03,31,8.50
2009,07,01,03,32,8.50
2009,07,01,03,33,8.50
2009,07,01,03,34,8.50
2009,07,01,03,35,8.60
2009,07,01,03,36,8.60
2009,07,01,03,37,8.60
2009,07,01,03,38,8.70
2009,07,01,03,39,8.70
2009,07,01,03,40,8.70
2009,07,01,03,41,8.70
2009,07,01,03,42,8.70
2009,07,01,03,43,8.70
2009,07,01,03,44,8.70
2009,07,01,03,45,8.60
2009,07,01,03,46,8.60
2009,07,01,03,47,8.60
2009,07,01,03,48,8.60
2009,07,01,03,49,8.60
2009,07,01,03,50,8.60
2009,07,01,03,51,8.60
2009,07,01,03,52,8.60
2009,07,01,03,53,8.60
2009,07,01,03,54,8.60
2009,07,01,03,55,8.60
2009,07,01,03,56,8.60
2009,07,01,03,57,8.60
2009,07,01,03,58,8.60
2009,07,01,03,59,8.60
2009,07,01,04,00,8.60
2009,07,01,04,01,8.60
2009,07,01,04,02,8.50
2009,07,01,04,03,8.50
2009,07,01,04,04,8.50
2009,07,01,04,05,8.50
2009,07,01,04,06,8.50
2009,07,01,04,07,8.40
2009,07,01,04,08,8.40
2009,07,01,04,09,8.40
2009,07,01,04,10,8.40
2009,07,01,04,11,8.30
2009,07,01,04,12,8.30
2009,07,01,04,13,8.30
2009,07,01,04,14,8.30
2009,07,01,04,15,8.30
2009,07,01,04,16,8.30
2009,07,01,04,17,8.30
2009,07,01,04,18,8.30
2009,07,01,04,19,8.30
2009,07,01,04,20,8.20
2009,07,01,04,21,8.20
2009,07,01,04,22,8.10
2009,07,01,04,23,8.10
2009,07,01,04,24,8.10
2009,07,01,04,25,8.10
2009,07,01,04,26,8.20
2009,07,01,04,27,8.20
2009,07,01,04,28,8.20
2009,07,01,04,29,8.20
2009,07,01,04,30,8.20
2009,07,01,04,31,8.20
2009,07,01,04,32,8.20
2009,07,01,04,33,8.20
2009,07,01,04,34,8.20
2009,07,01,04,35,8.20
2009,07,01,04,36,8.20
2009,07,01,04,37,8.20
2009,07,01,04,38,8.20
2009,07,01,04,39,8.20
2009,07,01,04,40,8.20
2009,07,01,04,41,8.20
2009,07,01,04,42,8.20
2009,07,01,04,43,8.20
2009,07,01,04,44,8.20
2009,07,01,04,45,8.20
2009,07,01,04,46,8.20
2009,07,01,04,47,8.20
2009,07,01,04,48,8.20
2009,07,01,04,49,8.20
2009,07,01,04,50,8.20
2009,07,01,04,51,8.20
2009,07,01,04,52,8.20
2009,07,01,04,53,8.20
2009,07,01,04,54,8.20
2009,07,01,04,55,8.10
2009,07,01,04,56,8.10
2009,07,01,04,57,8.10
2009,07,01,04,58,8.10
2009,07,01,04,59,8.10
2009,07,01,05,00,8.10
2009,07,01,05,01,8.10
2009,07,01,05,02,8.00
2009,07,01,05,03,8.00
2009,07,01,05,04,8.00
2009,07,01,05,05,8.10
2009,07,01,05,06,8.10
2009,07,01,05,07,8.10
2009,07,01,05,08,8.10
2009,07,01,05,09,8.00
2009,07,01,05,10,8.00
2009,07,01,05,11,8.00
2009,07,01,05,12,7.90
2009,07,01,05,13,7.90
2009,07,01,05,14,7.90
2009,07,01,05,15,7.90
2009,07,01,05,16,7.90
2009,07,01,05,17,7.90
2009,07,01,05,18,7.90
2009,07,01,05,19,7.90
2009,07,01,05,20,7.90
2009,07,01,05,21,7.90
2009,07,01,05,22,7.90
2009,07,01,05,23,7.90
2009,07,01,05,24,7.90
2009,07,01,05,25,7.90
2009,07,01,05,26,7.90
2009,07,01,05,27,7.80
2009,07,01,05,28,7.80
2009,07,01,05,29,7.80
2009,07,01,05,30,7.80
2009,07,01,05,31,7.70
2009,07,01,05,32,7.70
2009,07,01,05,33,7.70
2009,07,01,05,34,7.70
2009,07,01,05,35,7.70
2009,07,01,05,36,7.70
2009,07,01,05,37,7.70
2009,07,01,05,38,7.70
2009,07,01,05,39,7.70
2009,07,01,05,40,7.70
2009,07,01,05,41,7.70
2009,07,01,05,42,7.70
2009,07,01,05,43,7.70
2009,07,01,05,44,7.70
2009,07,01,05,45,7.80
2009,07,01,05,46,7.80
2009,07,01,05,47,7.80
2009,07,01,05,48,7.80
2009,07,01,05,49,7.80
2009,07,01,05,50,7.80
2009,07,01,05,51,7.80
2009,07,01,05,52,7.80
2009,07,01,05,53,7.80
2009,07,01,05,54,7.80
2009,07,01,05,55,7.80
2009,07,01,05,56,7.90
2009,07,01,05,57,7.90
2009,07,01,05,58,8.00
2009,07,01,05,59,8.10
2009,07,01,06,00,8.10
2009,07,01,06,01,8.20
2009,07,01,06,02,8.30
2009,07,01,06,03,8.30
2009,07,01,06,04,8.40
2009,07,01,06,05,8.50
2009,07,01,06,06,8.50
2009,07,01,06,07,8.50
2009,07,01,06,08,8.50
2009,07,01,06,09,8.50
2009,07,01,06,10,8.60
2009,07,01,06,11,8.60
2009,07,01,06,12,8.60
2009,07,01,06,13,8.60
2009,07,01,06,14,8.70
2009,07,01,06,15,8.70
2009,07,01,06,16,8.70
2009,07,01,06,17,8.70
2009,07,01,06,18,8.90
2009,07,01,06,19,8.90
2009,07,01,06,20,9.10
2009,07,01,06,21,9.20
2009,07,01,06,22,9.20
2009,07,01,06,23,9.30
2009,07,01,06,24,9.40
2009,07,01,06,25,9.50
2009,07,01,06,26,9.50
2009,07,01,06,27,9.60
2009,07,01,06,28,9.60
2009,07,01,06,29,9.60
2009,07,01,06,30,9.60
2009,07,01,06,31,9.70
2009,07,01,06,32,9.70
2009,07,01,06,33,9.70
2009,07,01,06,34,9.70
2009,07,01,06,35,9.70
2009,07,01,06,36,9.80
2009,07,01,06,37,9.80
2009,07,01,06,38,9.90
2009,07,01,06,39,9.90
2009,07,01,06,40,10.10
2009,07,01,06,41,10.10
2009,07,01,06,42,10.20
2009,07,01,06,43,10.20
2009,07,01,06,44,10.30
2009,07,01,06,45,10.40
2009,07,01,06,46,10.50
2009,07,01,06,47,10.60
2009,07,01,06,48,10.70
2009,07,01,06,49,10.80
2009,07,01,06,50,10.80
2009,07,01,06,51,10.90
2009,07,01,06,52,10.90
2009,07,01,06,53,11.00
2009,07,01,06,54,11.10
2009,07,01,06,55,11.20
2009,07,01,06,56,11.30
2009,07,01,06,57,11.40
2009,07,01,06,58,11.60
2009,07,01,06,59,11.80
2009,07,01,07,00,11.90
2009,07,01,07,01,12.10
2009,07,01,07,02,12.30
2009,07,01,07,03,12.50
2009,07,01,07,04,12.70
2009,07,01,07,05,12.80
2009,07,01,07,06,13.00
2009,07,01,07,07,13.10
2009,07,01,07,08,13.20
2009,07,01,07,09,13.30
2009,07,01,07,10,13.30
2009,07,01,07,11,13.40
2009,07,01,07,12,13.40
2009,07,01,07,13,13.50
2009,07,01,07,14,13.50
2009,07,01,07,15,13.60
2009,07,01,07,16,13.60
2009,07,01,07,17,13.60
2009,07,01,07,18,13.70
2009,07,01,07,19,13.70
2009,07,01,07,20,13.70
2009,07,01,07,21,13.70
2009,07,01,07,22,13.70
2009,07,01,07,23,13.70
2009,07,01,07,24,13.70
2009,07,01,07,25,13.80
2009,07,01,07,26,13.80
2009,07,01,07,27,13.80
2009,07,01,07,28,13.90
2009,07,01,07,29,13.90
2009,07,01,07,30,14.00
2009,07,01,07,31,14.00
2009,07,01,07,32,14.10
2009,07,01,07,33,14.10
2009,07,01,07,34,14.10
2009,07,01,07,35,14.20
2009,07,01,07,36,14.20
2009,07,01,07,37,14.20
2009,07,01,07,38,14.20
2009,07,01,07,39,14.20
2009,07,01,07,40,14.30
2009,07,01,07,41,14.30
2009,07,01,07,42,14.30
2009,07,01,07,43,14.40
2009,07,01,07,44,14.40
2009,07,01,07,45,14.40
2009,07,01,07,46,14.50
2009,07,01,07,47,14.50
2009,07,01,07,48,14.50
2009,07,01,07,49,14.50
2009,07,01,07,50,14.50
2009,07,01,07,51,14.50
2009,07,01,07,52,14.40
2009,07,01,07,53,14.40
2009,07,01,07,54,14.50
2009,07,01,07,55,14.50
2009,07,01,07,56,14.50
2009,07,01,07,57,14.50
2009,07,01,07,58,14.60
2009,07,01,07,59,14.60
2009,07,01,08,00,14.60
2009,07,01,08,01,14.70
2009,07,01,08,02,14.70
2009,07,01,08,03,14.70
2009,07,01,08,04,14.80
2009,07,01,08,05,14.80
2009,07,01,08,06,14.80
2009,07,01,08,07,14.80
2009,07,01,08,08,14.80
2009,07,01,08,09,14.90
2009,07,01,08,10,14.90
2009,07,01,08,11,14.90
2009,07,01,08,12,14.90
2009,07,01,08,13,14.90
2009,07,01,08,14,14.90
2009,07,01,08,15,14.90
2009,07,01,08,16,14.80
2009,07,01,08,17,14.80
2009,07,01,08,18,14.80
2009,07,01,08,19,14.80
2009,07,01,08,20,14.80
2009,07,01,08,21,14.80
2009,07,01,08,22,14.80
2009,07,01,08,23,14.80
2009,07,01,08,24,14.90
2009,07,01,08,25,14.90
2009,07,01,08,26,14.90
2009,07,01,08,27,14.90
2009,07,01,08,28,14.80
2009,07,01,08,29,14.80
2009,07,01,08,30,14.80
2009,07,01,08,31,14.90
2009,07,01,08,32,14.90
2009,07,01,08,33,15.00
2009,07,01,08,34,15.00
2009,07,01,08,35,15.00
2009,07,01,08,36,15.00
2009,07,01,08,37,15.00
2009,07,01,08,38,15.00
2009,07,01,08,39,15.10
2009,07,01,08,40,15.10
2009,07,01,08,41,15.10
2009,07,01,08,42,15.20
2009,07,01,08,43,15.20
2009,07,01,08,44,15.20
2009,07,01,08,45,15.30
2009,07,01,08,46,15.30
2009,07,01,08,47,15.30
2009,07,01,08,48,15.30
2009,07,01,08,49,15.30
2009,07,01,08,50,15.30
2009,07,01,08,51,15.30
2009,07,01,08,52,15.30
2009,07,01,08,53,15.30
2009,07,01,08,54,15.30
2009,07,01,08,55,15.30
2009,07,01,08,56,15.40
2009,07,01,08,57,15.50
2009,07,01,08,58,15.50
2009,07,01,08,59,15.50
2009,07,01,09,00,15.50
2009,07,01,09,01,15.50
2009,07,01,09,02,15.50
2009,07,01,09,03,15.40
2009,07,01,09,04,15.40
2009,07,01,09,05,15.40
2009,07,01,09,06,15.50
2009,07,01,09,07,15.60
2009,07,01,09,08,15.70
2009,07,01,09,09,15.70
2009,07,01,09,10,15.80
2009,07,01,09,11,15.80
2009,07,01,09,12,15.70
2009,07,01,09,13,15.70
2009,07,01,09,14,15.70
2009,07,01,09,15,15.60
2009,07,01,09,16,15.70
2009,07,01,09,17,15.60
2009,07,01,09,18,15.60
2009,07,01,09,19,15.50
2009,07,01,09,20,15.50
2009,07,01,09,21,15.60
2009,07,01,09,22,15.60
2009,07,01,09,23,15.60
2009,07,01,09,24,15.60
2009,07,01,09,25,15.70
2009,07,01,09,26,15.70
2009,07,01,09,27,15.70
2009,07,01,09,28,15.80
2009,07,01,09,29,15.90
2009,07,01,09,30,16.10
2009,07,01,09,31,16.10
2009,07,01,09,32,16.10
2009,07,01,09,33,16.20
2009,07,01,09,34,16.20
2009,07,01,09,35,16.30
2009,07,01,09,36,16.30
2009,07,01,09,37,16.40
2009,07,01,09,38,16.40
2009,07,01,09,39,16.40
2009,07,01,09,40,16.30
2009,07,01,09,41,16.30
2009,07,01,09,42,16.30
2009,07,01,09,43,16.40
2009,07,01,09,44,16.40
2009,07,01,09,45,16.40
2009,07,01,09,46,16.40
2009,07,01,09,47,16.30
2009,07,01,09,48,16.20
2009,07,01,09,49,16.20
2009,07,01,09,50,16.20
2009,07,01,09,51,16.20
2009,07,01,09,52,16.30
2009,07,01,09,53,16.30
2009,07,01,09,54,16.30
2009,07,01,09,55,16.40
2009,07,01,09,56,16.40
2009,07,01,09,57,16.60
2009,07,01,09,58,16.70
2009,07,01,09,59,16.80
2009,07,01,10,00,16.80
2009,07,01,10,01,16.80
2009,07,01,10,02,16.80
2009,07,01,10,03,16.70
2009,07,01,10,04,16.70
2009,07,01,10,05,16.70
2009,07,01,10,06,16.70
2009,07,01,10,07,16.70
2009,07,01,10,08,16.60
2009,07,01,10,09,16.50
2009,07,01,10,10,16.40
2009,07,01,10,11,16.40
2009,07,01,10,12,16.40
2009,07,01,10,13,16.40
2009,07,01,10,14,16.40
2009,07,01,10,15,16.40
2009,07,01,10,16,16.40
2009,07,01,10,17,16.40
2009,07,01,10,18,16.40
2009,07,01,10,19,16.40
2009,07,01,10,20,16.50
2009,07,01,10,21,16.60
2009,07,01,10,22,16.70
2009,07,01,10,23,16.70
2009,07,01,10,24,16.80
2009,07,01,10,25,16.80
2009,07,01,10,26,16.90
2009,07,01,10,27,16.90
2009,07,01,10,28,16.90
2009,07,01,10,29,17.00
2009,07,01,10,30,17.00
2009,07,01,10,31,17.00
2009,07,01,10,32,17.10
2009,07,01,10,33,17.10
2009,07,01,10,34,17.20
2009,07,01,10,35,17.20
2009,07,01,10,36,17.20
2009,07,01,10,37,17.10
2009,07,01,10,38,17.10
2009,07,01,10,39,17.10
2009,07,01,10,40,17.10
2009,07,01,10,41,17.20
2009,07,01,10,42,17.20
2009,07,01,10,43,17.20
2009,07,01,10,44,17.30
2009,07,01,10,45,17.40
2009,07,01,10,46,17.50
2009,07,01,10,47,17.50
2009,07,01,10,48,17.60
2009,07,01,10,49,17.60
2009,07,01,10,50,17.60
2009,07,01,10,51,17.60
2009,07,01,10,52,17.50
2009,07,01,10,53,17.40
2009,07,01,10,54,17.30
2009,07,01,10,55,17.10
2009,07,01,10,56,17.10
2009,07,01,10,57,17.10
2009,07,01,10,58,17.10
2009,07,01,10,59,17.20
2009,07,01,11,00,17.30
2009,07,01,11,01,17.30
2009,07,01,11,02,17.30
2009,07,01,11,03,17.30
2009,07,01,11,04,17.30
2009,07,01,11,05,17.40
2009,07,01,11,06,17.40
2009,07,01,11,07,17.40
2009,07,01,11,08,17.40
2009,07,01,11,09,17.40
2009,07,01,11,10,17.40
2009,07,01,11,11,17.50
2009,07,01,11,12,17.60
2009,07,01,11,13,17.60
2009,07,01,11,14,17.60
2009,07,01,11,15,17.60
2009,07,01,11,16,17.50
2009,07,01,11,17,17.50
2009,07,01,11,18,17.60
2009,07,01,11,19,17.70
2009,07,01,11,20,17.70
2009,07,01,11,21,17.70
2009,07,01,11,22,17.60
2009,07,01,11,23,17.60
2009,07,01,11,24,17.50
2009,07,01,11,25,17.50
2009,07,01,11,26,17.50
2009,07,01,11,27,17.60
2009,07,01,11,28,17.70
2009,07,01,11,29,17.70
2009,07,01,11,30,17.80
2009,07,01,11,31,17.80
2009,07,01,11,32,17.80
2009,07,01,11,33,17.80
2009,07,01,11,34,17.80
2009,07,01,11,35,17.80
2009,07,01,11,36,17.80
2009,07,01,11,37,17.80
2009,07,01,11,38,17.90
2009,07,01,11,39,18.00
2009,07,01,11,40,18.10
2009,07,01,11,41,18.20
2009,07,01,11,42,18.30
2009,07,01,11,43,18.30
2009,07,01,11,44,18.30
2009,07,01,11,45,18.30
2009,07,01,11,46,18.30
2009,07,01,11,47,18.30
2009,07,01,11,48,18.30
2009,07,01,11,49,18.20
2009,07,01,11,50,18.20
2009,07,01,11,51,18.30
2009,07,01,11,52,18.30
2009,07,01,11,53,18.30
2009,07,01,11,54,18.30
2009,07,01,11,55,18.30
2009,07,01,11,56,18.30
2009,07,01,11,57,18.40
2009,07,01,11,58,18.50
2009,07,01,11,59,18.50
2009,07,01,12,00,18.60
2009,07,01,12,01,18.60
2009,07,01,12,02,18.70
2009,07,01,12,03,18.70
2009,07,01,12,04,18.80
2009,07,01,12,05,18.80
2009,07,01,12,06,18.80
2009,07,01,12,07,18.80
2009,07,01,12,08,18.80
2009,07,01,12,09,18.80
2009,07,01,12,10,18.80
2009,07,01,12,11,18.90
2009,07,01,12,12,18.90
2009,07,01,12,13,18.90
2009,07,01,12,14,18.90
2009,07,01,12,15,19.00
2009,07,01,12,16,19.10
2009,07,01,12,17,19.10
2009,07,01,12,18,18.90
2009,07,01,12,19,18.70
2009,07,01,12,20,18.50
2009,07,01,12,21,18.30
2009,07,01,12,22,18.20
2009,07,01,12,23,18.20
2009,07,01,12,24,18.20
2009,07,01,12,25,18.20
2009,07,01,12,26,18.20
2009,07,01,12,27,18.40
2009,07,01,12,28,18.50
2009,07,01,12,29,18.50
2009,07,01,12,30,18.50
2009,07,01,12,31,18.60
2009,07,01,12,32,18.70
2009,07,01,12,33,18.90
2009,07,01,12,34,19.00
2009,07,01,12,35,19.10
2009,07,01,12,36,19.10
2009,07,01,12,37,19.10
2009,07,01,12,38,19.00
2009,07,01,12,39,18.90
2009,07,01,12,40,18.90
2009,07,01,12,41,18.90
2009,07,01,12,42,18.90
2009,07,01,12,43,18.90
2009,07,01,12,44,18.70
2009,07,01,12,45,18.60
2009,07,01,12,46,18.50
2009,07,01,12,47,18.50
2009,07,01,12,48,18.50
2009,07,01,12,49,18.60
2009,07,01,12,50,18.60
2009,07,01,12,51,18.50
2009,07,01,12,52,18.50
2009,07,01,12,53,18.50
2009,07,01,12,54,18.40
2009,07,01,12,55,18.40
2009,07,01,12,56,18.50
2009,07,01,12,57,18.50
2009,07,01,12,58,18.40
2009,07,01,12,59,18.40
2009,07,01,13,00,18.50
2009,07,01,13,01,18.50
2009,07,01,13,02,18.60
2009,07,01,13,03,18.70
2009,07,01,13,04,18.70
2009,07,01,13,05,18.70
2009,07,01,13,06,18.80
2009,07,01,13,07,18.80
2009,07,01,13,08,18.80
2009,07,01,13,09,18.90
2009,07,01,13,10,18.80
2009,07,01,13,11,18.80
2009,07,01,13,12,18.70
2009,07,01,13,13,18.70
2009,07,01,13,14,18.70
2009,07,01,13,15,18.80
2009,07,01,13,16,18.80
2009,07,01,13,17,18.90
2009,07,01,13,18,18.90
2009,07,01,13,19,18.80
2009,07,01,13,20,18.70
2009,07,01,13,21,18.70
2009,07,01,13,22,18.60
2009,07,01,13,23,18.60
2009,07,01,13,24,18.50
2009,07,01,13,25,18.40
2009,07,01,13,26,18.30
2009,07,01,13,27,18.30
2009,07,01,13,28,18.40
2009,07,01,13,29,18.50
2009,07,01,13,30,18.60
2009,07,01,13,31,18.60
2009,07,01,13,32,18.60
2009,07,01,13,33,18.50
2009,07,01,13,34,18.50
2009,07,01,13,35,18.60
2009,07,01,13,36,18.70
2009,07,01,13,37,18.90
2009,07,01,13,38,18.80
2009,07,01,13,39,18.80
2009,07,01,13,40,18.70
2009,07,01,13,41,18.70
2009,07,01,13,42,18.70
2009,07,01,13,43,18.70
2009,07,01,13,44,18.70
2009,07,01,13,45,18.90
2009,07,01,13,46,18.90
2009,07,01,13,47,18.90
2009,07,01,13,48,18.90
2009,07,01,13,49,18.80
2009,07,01,13,50,18.80
2009,07,01,13,51,18.80
2009,07,01,13,52,18.70
2009,07,01,13,53,18.70
2009,07,01,13,54,18.70
2009,07,01,13,55,18.80
2009,07,01,13,56,18.90
2009,07,01,13,57,18.90
2009,07,01,13,58,18.90
2009,07,01,13,59,19.10
2009,07,01,14,00,19.10
2009,07,01,14,01,19.10
2009,07,01,14,02,19.10
2009,07,01,14,03,19.10
2009,07,01,14,04,19.30
2009,07,01,14,05,19.30
2009,07,01,14,06,19.30
2009,07,01,14,07,19.40
2009,07,01,14,08,19.40
2009,07,01,14,09,19.40
2009,07,01,14,10,19.40
2009,07,01,14,11,19.30
2009,07,01,14,12,19.20
2009,07,01,14,13,19.20
2009,07,01,14,14,19.10
2009,07,01,14,15,19.10
2009,07,01,14,16,19.10
2009,07,01,14,17,19.10
2009,07,01,14,18,19.10
2009,07,01,14,19,19.10
2009,07,01,14,20,19.10
2009,07,01,14,21,19.10
2009,07,01,14,22,19.10
2009,07,01,14,23,19.10
2009,07,01,14,24,19.10
2009,07,01,14,25,19.10
2009,07,01,14,26,19.10
2009,07,01,14,27,19.10
2009,07,01,14,28,19.10
2009,07,01,14,29,19.10
2009,07,01,14,30,19.20
2009,07,01,14,31,19.20
2009,07,01,14,32,19.30
2009,07,01,14,33,19.30
2009,07,01,14,34,19.40
2009,07,01,14,35,19.40
2009,07,01,14,36,19.40
2009,07,01,14,37,19.50
2009,07,01,14,38,19.50
2009,07,01,14,39,19.50
2009,07,01,14,40,19.40
2009,07,01,14,41,19.40
2009,07,01,14,42,19.40
2009,07,01,14,43,19.40
2009,07,01,14,44,19.40
2009,07,01,14,45,19.50
2009,07,01,14,46,19.50
2009,07,01,14,47,19.50
2009,07,01,14,48,19.50
2009,07,01,14,49,19.50
2009,07,01,14,50,19.50
2009,07,01,14,51,19.60
2009,07,01,14,52,19.80
2009,07,01,14,53,19.90
2009,07,01,14,54,19.90
2009,07,01,14,55,19.90
2009,07,01,14,56,19.90
2009,07,01,14,57,19.90
2009,07,01,14,58,19.90
2009,07,01,14,59,19.90
2009,07,01,15,00,19.90
2009,07,01,15,01,19.90
2009,07,01,15,02,20.00
2009,07,01,15,03,20.10
2009,07,01,15,04,20.10
2009,07,01,15,05,20.20
2009,07,01,15,06,20.20
2009,07,01,15,07,20.20
2009,07,01,15,08,20.20
2009,07,01,15,09,20.20
2009,07,01,15,10,20.20
2009,07,01,15,11,20.20
2009,07,01,15,12,20.20
2009,07,01,15,13,20.20
2009,07,01,15,14,20.20
2009,07,01,15,15,20.20
2009,07,01,15,16,20.20
2009,07,01,15,17,20.20
2009,07,01,15,18,20.20
2009,07,01,15,19,20.20
2009,07,01,15,20,20.30
2009,07,01,15,21,20.30
2009,07,01,15,22,20.30
2009,07,01,15,23,20.40
2009,07,01,15,24,20.50
2009,07,01,15,25,20.50
2009,07,01,15,26,20.60
2009,07,01,15,27,20.60
2009,07,01,15,28,20.60
2009,07,01,15,29,20.60
2009,07,01,15,30,20.70
2009,07,01,15,31,20.70
2009,07,01,15,32,20.70
2009,07,01,15,33,20.70
2009,07,01,15,34,20.80
2009,07,01,15,35,20.80
2009,07,01,15,36,20.90
2009,07,01,15,37,20.90
2009,07,01,15,38,21.00
2009,07,01,15,39,21.00
2009,07,01,15,40,21.00
2009,07,01,15,41,21.00
2009,07,01,15,42,21.10
2009,07,01,15,43,21.20
2009,07,01,15,44,21.30
2009,07,01,15,45,21.40
2009,07,01,15,46,21.60
2009,07,01,15,47,21.60
2009,07,01,15,48,21.60
2009,07,01,15,49,21.60
2009,07,01,15,50,21.60
2009,07,01,15,51,21.60
2009,07,01,15,52,21.60
2009,07,01,15,53,21.60
2009,07,01,15,54,21.50
2009,07,01,15,55,21.40
2009,07,01,15,56,21.40
2009,07,01,15,57,21.40
2009,07,01,15,58,21.40
2009,07,01,15,59,21.60
2009,07,01,16,00,21.60
2009,07,01,16,01,21.60
2009,07,01,16,02,21.60
2009,07,01,16,03,21.80
2009,07,01,16,04,21.90
2009,07,01,16,05,22.00
2009,07,01,16,06,22.10
2009,07,01,16,07,22.10
2009,07,01,16,08,22.20
2009,07,01,16,09,22.20
2009,07,01,16,10,22.20
2009,07,01,16,11,22.30
2009,07,01,16,12,22.40
2009,07,01,16,13,22.40
2009,07,01,16,14,22.40
2009,07,01,16,15,22.40
2009,07,01,16,16,22.40
2009,07,01,16,17,22.40
2009,07,01,16,18,22.50
2009,07,01,16,19,22.50
2009,07,01,16,20,22.60
2009,07,01,16,21,22.60
2009,07,01,16,22,22.60
2009,07,01,16,23,22.50
2009,07,01,16,24,22.50
2009,07,01,16,25,22.50
2009,07,01,16,26,22.50
2009,07,01,16,27,22.50
2009,07,01,16,28,22.50
2009,07,01,16,29,22.50
2009,07,01,16,30,22.50
2009,07,01,16,31,22.60
2009,07,01,16,32,22.70
2009,07,01,16,33,22.80
2009,07,01,16,34,22.80
2009,07,01,16,35,22.80
2009,07,01,16,36,22.90
2009,07,01,16,37,22.90
2009,07,01,16,38,22.90
2009,07,01,16,39,23.00
2009,07,01,16,40,22.90
2009,07,01,16,41,22.90
2009,07,01,16,42,22.90
2009,07,01,16,43,22.90
2009,07,01,16,44,22.80
2009,07,01,16,45,22.80
2009,07,01,16,46,22.90
2009,07,01,16,47,22.90
2009,07,01,16,48,22.90
2009,07,01,16,49,22.90
2009,07,01,16,50,22.90
2009,07,01,16,51,22.80
2009,07,01,16,52,22.80
2009,07,01,16,53,22.80
2009,07,01,16,54,22.70
2009,07,01,16,55,22.70
2009,07,01,16,56,22.70
2009,07,01,16,57,22.70
2009,07,01,16,58,22.70
2009,07,01,16,59,22.70
2009,07,01,17,00,22.80
2009,07,01,17,01,22.90
2009,07,01,17,02,22.90
2009,07,01,17,03,23.00
2009,07,01,17,04,23.10
2009,07,01,17,05,23.10
2009,07,01,17,06,22.90
2009,07,01,17,07,22.90
2009,07,01,17,08,22.90
2009,07,01,17,09,22.90
2009,07,01,17,10,22.90
2009,07,01,17,11,22.90
2009,07,01,17,12,22.90
2009,07,01,17,13,22.90
2009,07,01,17,14,22.90
2009,07,01,17,15,22.90
2009,07,01,17,16,22.80
2009,07,01,17,17,22.80
2009,07,01,17,18,22.80
2009,07,01,17,19,22.90
2009,07,01,17,20,22.90
2009,07,01,17,21,22.90
2009,07,01,17,22,22.90
2009,07,01,17,23,22.90
2009,07,01,17,24,22.90
2009,07,01,17,25,22.90
2009,07,01,17,26,22.90
2009,07,01,17,27,22.90
2009,07,01,17,28,22.90
2009,07,01,17,29,22.90
2009,07,01,17,30,22.90
2009,07,01,17,31,22.90
2009,07,01,17,32,23.10